TimeEDT,TemperatureF,Dew PointF,Humidity,Sea Level PressureIn,VisibilityMPH,Wind Direction,Wind SpeedMPH,Gust SpeedMPH,PrecipitationIn,Events,Conditions,WindDirDegrees,DateUTC
12:54 AM,45.0,42.1,90,30.34,10.0,West,3.5,-,N/A,,Clear,260,2013-10-09 04:54:00
1:54 AM,46.0,42.1,86,30.35,10.0,Calm,Calm,-,N/A,,Clear,0,2013-10-09 05:54:00
2:54 AM,44.1,41.0,89,30.35,10.0,Calm,Calm,-,N/A,,Clear,0,2013-10-09 06:54:00
3:54 AM,43.0,41.0,93,30.35,10.0,Calm,Calm,-,N/A,,Clear,0,2013-10-09 07:54:00
4:54 AM,42.1,39.9,92,30.37,10.0,Calm,Calm,-,N/A,,Clear,0,2013-10-09 08:54:00
5:54 AM,42.1,39.0,89,30.37,10.0,Calm,Calm,-,N/A,,Clear,0,2013-10-09 09:54:00
6:54 AM,42.1,39.0,89,30.38,10.0,Calm,Calm,-,N/A,,Clear,0,2013-10-09 10:54:00
7:45 AM,42.8,39.2,87,30.39,10.0,Calm,Calm,-,N/A,,Scattered Clouds,0,2013-10-09 11:45:00
7:54 AM,43.0,39.9,89,30.41,10.0,Calm,Calm,-,N/A,,Mostly Cloudy,0,2013-10-09 11:54:00
8:02 AM,42.8,41.0,93,30.40,1.2,Calm,Calm,-,N/A,,Mostly Cloudy,0,2013-10-09 12:02:00
8:07 AM,42.8,42.8,100,30.40,0.2,Calm,Calm,-,N/A,Fog,Fog,0,2013-10-09 12:07:00
8:24 AM,42.8,42.8,100,30.40,1.0,Calm,Calm,-,N/A,,Overcast,0,2013-10-09 12:24:00
8:54 AM,44.1,43.0,96,30.40,0.8,Calm,Calm,-,N/A,,Overcast,0,2013-10-09 12:54:00
9:08 AM,44.6,42.8,93,30.40,1.2,Calm,Calm,-,N/A,,Overcast,0,2013-10-09 13:08:00
9:21 AM,44.6,42.8,93,30.40,2.5,SW,3.5,-,N/A,,Overcast,230,2013-10-09 13:21:00
9:36 AM,46.4,44.6,93,30.42,4.0,West,3.5,-,N/A,,Overcast,280,2013-10-09 13:36:00
9:54 AM,48.9,44.1,83,30.42,10.0,SSW,3.5,-,N/A,,Scattered Clouds,210,2013-10-09 13:54:00
10:54 AM,55.0,44.1,67,30.40,10.0,Calm,Calm,-,N/A,,Mostly Cloudy,0,2013-10-09 14:54:00
11:54 AM,62.1,37.9,41,30.39,10.0,East,10.4,-,N/A,,Clear,90,2013-10-09 15:54:00
12:54 PM,62.1,37.0,39,30.37,10.0,SE,6.9,-,N/A,,Mostly Cloudy,140,2013-10-09 16:54:00
1:54 PM,64.0,37.9,38,30.34,10.0,Variable,4.6,-,N/A,,Overcast,0,2013-10-09 17:54:00
2:54 PM,64.9,37.0,36,30.32,10.0,Calm,Calm,-,N/A,,Overcast,0,2013-10-09 18:54:00
3:54 PM,66.0,35.1,32,30.31,10.0,East,4.6,-,N/A,,Clear,100,2013-10-09 19:54:00
4:54 PM,64.0,39.0,40,30.30,10.0,East,5.8,-,N/A,,Clear,100,2013-10-09 20:54:00
5:54 PM,61.0,39.9,46,30.30,10.0,SSE,4.6,-,N/A,,Clear,160,2013-10-09 21:54:00
6:54 PM,60.1,39.9,47,30.30,10.0,Calm,Calm,-,N/A,,Clear,0,2013-10-09 22:54:00
7:54 PM,54.0,44.1,69,30.30,10.0,Calm,Calm,-,N/A,,Clear,0,2013-10-09 23:54:00
8:54 PM,53.1,46.9,80,30.31,10.0,Calm,Calm,-,N/A,,Clear,0,2013-10-10 00:54:00
9:54 PM,52.0,45.0,77,30.31,10.0,Calm,Calm,-,N/A,,Clear,0,2013-10-10 01:54:00
10:54 PM,50.0,44.1,80,30.32,10.0,Calm,Calm,-,N/A,,Clear,0,2013-10-10 02:54:00
11:54 PM,48.0,44.1,86,30.31,10.0,Calm,Calm,-,N/A,,Clear,0,2013-10-10 03:54:00